Погода Спас-Деменск

Погода Спас-Деменск : погода сейчас, прогноз погоды и архив. Всё, что Вы хотите узнать о погоде Спас-Деменск!

Поиск расширенной информации на нашем сайте:

Другие новости

Новости СМИ2

Главная страница сайта

Новости сайта

03.07.2017

Напоминаем, что на нашем специализированном сайте Метеоцентр.Азия вы можете получить высокодетализированные автоматические прогнозы погоды по пунктам России, СНГ и мира в авиационном формате (включающие направление и скорость ветра, видимость, явления погоды, количество и форму облачности, нижнюю и верхнюю границу облачности).

Рекомендуем: http://www.dance-1.ru Сальса из свежих овощей

Погода Спас-Деменск - сегодня

Время (UTC), дата Ветер
(°,м/с) 
Видим.   Явления Облачность Т
(°С)
Тd
(°С)
f(%) Тe
(°С)
Pmin
(гПа)
dP
(гПа)
Po
(мм)
O2
(г/м3)
Тmin Tmax R s Состояние
почвы
03 15.08.17 010 (С) 15000 м    8/8 600 м 
[Sc]
+15.2 +13.5 90 +22  1023.5  1.1  746  282  +15.2        сухая 
06 15.08.17 040 (СВ) 15000 м    ясно 
+19 +13 68 +25  1024.2  747  279  +15.1        сухая 
09 15.08.17 030 (СВ) 15000 м    6/6 1000 м 
[Cu med, cong]
+21.5 +10.5 49 +23  1024.6  0.5  748  277           
12 15.08.17 070 (В) 15000 м    6/6 1000 м 
[Cu med, cong]
+22.6 +10.3 46 +24  1024.6  0.1  748  276           
15 15.08.17 050 (СВ) 15000 м    8/8 1000 м 
[Cu hum]
+22.1 +10.5 48 +24  1024.7  0.1  748  277    +23.3       
21 15.08.17 050 (СВ) н/о    н/о 
+14.5 +11.1 80 +18  1026.6  0.5  749  284           
00 16.08.17 070 (В) 15000 м    ясно 
+12.1 +9.6 85 +14  1027.2  0.3  749  287           
03 16.08.17 060 (СВ) 15000 м    6/6 600 м 
[Sc]
+11.5 +9.6 88 +14  1027.6  0.3  749  288  +11.2        сухая 
06 16.08.17 070 (В) 15000 м    6/3 600 м средняя 
[Sc|Ac As]
+16.6 +12.2 75 +21  1027.3  0.3  749  282  +11.2        сухая 
09 16.08.17 070 (В) 15000 м    6/6 1000 м 
[Cu med, cong]
+22.1 +12.1 53 +26  1026.3  -0.5  749  277           
12 16.08.17 080 (В) 15000 м    4/4 1000 м 
[Cu med, cong]
+23.1 +12.4 51 +28  1025.6  -0.5  749  276           
15 16.08.17 110 (В) 15000 м    3/3 1000 м 
[Cu med, cong]
+23 +12.1 50 +27  1024.9  -0.8  748  276    +24.1       
18 16.08.17 тихо ()   10 км    ясно 
+15.9 +13.4 85 +22  1025.4  0.1  748  282    +24.1       
21 16.08.17 тихо ()   10 км    ясно 
+13 +12 94 +17  1026  0.2  748  285           
00 17.08.17 тихо ()   10 км    3/0 средняя 
[Ac trans]
+11.5 +10.7 95 +14  1025.8  -0.3  748  287           
03 17.08.17 тихо ()   15000 м    6/6 600 м 
[Sc]
+11.8 +11 95 +14  1025.9  0.2  748  287  +11        сухая 
06 17.08.17 110 (В) 15000 м    3/0 2000 м средняя 
[Ac trans]
+20.7 +15.9 74 +31  1025  -0.1  748  277  +11        сухая 
09 17.08.17 120 (ЮВ) 10 км    3/0 верхняя 
[Ci sp]
+24.8 +13.5 49 +31  1024.3  -0.3  748  274           
12 17.08.17 110 (В) 15000 м    6/4 1000 м верхняя 
[Cu med, cong|Ci sp]
+25.9 +13.3 46 +32  1023.3  -0.8  747  272           
15 17.08.17 140 (ЮВ) 15000 м    3/0 верхняя 
[Ci sp]
+25.7 +15.8 54 +36  1022.4  -0.8  746  272    +26.5       
18 17.08.17 070 (В) 15000 м    3/0 верхняя 
[Ci sp]
+18.8 +16.7 88 +32  1023.3  0.2  747  278    +26.5       
21 17.08.17 тихо ()   10 км    ясно 
+16.5 +15.4 93 +26  1023.6  0.1  747  280           
00 18.08.17 тихо ()   12000 м    3/0 верхняя 
[Ci sp]
+15 +14.2 95 +22  1023.9  0.1  747  282           
03 18.08.17 180 (Ю) 13000 м    6/3 600 м верхняя 
[Sc|Ci fib]
+14.4 +13.6 95 +22  1023.9  0.1  747  283  +14.3        сухая 
06 18.08.17 170 (Ю) 15000 м    8/3 600 м верхняя 
[Sc|Ci sp]
+20.5 +15.3 72 +30  1023.5  0.2  747  277  +14.3        сухая 
Время (UTC), дата Ветер
(°,м/с) 
Видим.   Явления Облачность Т
(°С)
Тd
(°С)
f(%) Тe
(°С)
Pmin
(гПа)
dP
(гПа)
Po
(мм)
O2
(г/м3)
Тmin Tmax R s Состояние
почвы

Для получения пояснительной информации подведите курсор к названию столбца.

ПОГОДА Спас-Деменск - архив

Всё, что Вы хотите узнать о погоде Спас-Деменск - удобно и подробно!

Выберите нужную дату (начиная с 1 января 2015* года) и нажмите кнопку "Найти".
Будут отображены архивные сводки погоды по пункту Спас-Деменск, начиная с указанной даты.


Отображать данные в формате CSV (для использования в таблицах Excel)


Внимание! Наш архив погоды предназначен исключительно для личного некоммерческого использования в познавательных целях. Если Вам необходимы официальные справки о состоянии погоды (для производственных, юридических, коммерческих и т.п. целей), обращайтесь в органы Росгидромета.

*Примечание: данная дата относится к архиву по метеостанциям СССР (Россия, СНГ, Балтия).
Архив по метеостанциям Зарубежной Европы и Азии (кроме Китая) хранится 10 дней, по другим регионам земного шара (Китай, Африка, Америка, Австралия, Океания) - 1 день.

Спас-Деменск - район местоположения метеостанции


Название, широта, долгота, высота метеостанции:
Спас-Деменск 54.4°ш. 34°д. 238 м над ур. моря [Российская Федерация]

Дополнительная информация

В oтличие oт бoльшинства пoгoдных сайтoв мы публикуем пoдрoбную метеoинфoрмацию в детальнoм прoфессиoнальнoм фoрмате.

Характеристики температуры и влажнoсти вoздуха измеряются на высoте 2 м в тени вдали oт зданий и деревьев.
Скoрoсть ветра измеряется на высoте 10 м (на урoвне рoста челoвека скoрoсть ветра ниже в 1.5-2 раза). Если метеoстанция нахoдится в гoрoде или в лесу, тo скoрoсть ветра занижена на 2-4 м/с пo сравнению с oткрытым местoм. Скoрoсть ветра над акватoриями крупных рек и oзёр, а также на вершинах хoлмoв на 2-5 м/с выше, чем в oбычных услoвиях.
Атмoсфернoе давление в разных тoчках местнoсти мoжет значительнo oтличаться oт давления на метеoстанции, в зависимoсти oт услoвий рельефа (при пoдъёме на 10 м давление пoнижается примернo на 1 мм рт.ст.).